AFR2150 KLAX-TFFF

Flight info

Callsign AFR2150
Flight time N/A
Altitude 37000
Route DOTSS2 CLEEE DCT BLH DCT KOFFA DCT TCS DCT INK/N0467F390 DCT FUSCO DCT CLL DCT BPT DCT BLVNS DCT CIGAR DCT DHP DCT GTK/N0471F410 DCT BQN DCT EMOLA EMOLA2X
Aircraft B772/H-SDE2E3FGHIJ5LORVWXY/LB1D1

Departure

Time 2026-04-23 13:26
Airport Los Angeles International Airport (KLAX)

Arrival

Time N/A
Airport Martinique Aimé Césaire International Airport (TFFF)
Time Latitude Longitude Altitude Speed Heading
2026-04-23 12:34 33.94178 -118.41097 130 ft 0 kts 83°
2026-04-23 13:16 33.94176 -118.41112 130 ft 2 kts 83°
2026-04-23 13:16 33.94174 -118.41131 130 ft 2 kts 83°
2026-04-23 13:16 33.94172 -118.41150 130 ft 2 kts 83°
2026-04-23 13:17 33.94171 -118.41161 130 ft 2 kts 81°
2026-04-23 13:17 33.94167 -118.41177 130 ft 2 kts 58°
2026-04-23 13:17 33.94157 -118.41191 130 ft 2 kts 38°
2026-04-23 13:17 33.94144 -118.41200 130 ft 2 kts 18°
2026-04-23 13:18 33.94130 -118.41203 129 ft 2 kts 357°
2026-04-23 13:18 33.94123 -118.41202 130 ft 1 kts 352°
2026-04-23 13:18 33.94122 -118.41202 130 ft 0 kts 352°
2026-04-23 13:20 33.94134 -118.41204 129 ft 5 kts 353°
2026-04-23 13:20 33.94199 -118.41213 129 ft 13 kts 353°
2026-04-23 13:21 33.94315 -118.41230 127 ft 20 kts 353°
2026-04-23 13:21 33.94456 -118.41251 127 ft 20 kts 353°
2026-04-23 13:21 33.94594 -118.41271 127 ft 18 kts 353°
2026-04-23 13:21 33.94708 -118.41288 129 ft 12 kts 353°
2026-04-23 13:22 33.94774 -118.41282 130 ft 9 kts 32°
2026-04-23 13:22 33.94804 -118.41200 130 ft 12 kts 79°
2026-04-23 13:22 33.94817 -118.41087 130 ft 14 kts 84°
2026-04-23 13:22 33.94830 -118.40951 130 ft 17 kts 83°
2026-04-23 13:23 33.94846 -118.40794 129 ft 20 kts 83°
2026-04-23 13:23 33.94865 -118.40609 127 ft 23 kts 83°
2026-04-23 13:23 33.94885 -118.40422 125 ft 17 kts 82°
2026-04-23 13:23 33.94902 -118.40361 124 ft 1 kts 61°
2026-04-23 13:24 33.94902 -118.40359 124 ft 0 kts 61°
2026-04-23 13:24 33.94907 -118.40351 124 ft 3 kts 61°
2026-04-23 13:24 33.94927 -118.40319 124 ft 6 kts 42°
2026-04-23 13:24 33.94981 -118.40307 124 ft 9 kts 333°
2026-04-23 13:25 33.94997 -118.40385 125 ft 11 kts 266°
2026-04-23 13:25 33.94984 -118.40530 127 ft 37 kts 263°
2026-04-23 13:25 33.94920 -118.41152 130 ft 110 kts 263°
2026-04-23 13:25 33.94796 -118.42325 132 ft 167 kts 263°
2026-04-23 13:26 33.94648 -118.43784 563 ft 180 kts 262°
2026-04-23 13:26 33.94477 -118.45282 1402 ft 181 kts 264°
2026-04-23 13:26 33.94334 -118.46823 1855 ft 195 kts 267°
2026-04-23 13:26 33.94291 -118.48508 2245 ft 212 kts 270°
2026-04-23 13:27 33.94251 -118.50345 2735 ft 227 kts 269°
2026-04-23 13:27 33.94144 -118.52308 3209 ft 243 kts 265°
2026-04-23 13:27 33.93964 -118.54376 3706 ft 259 kts 266°
2026-04-23 13:27 33.93782 -118.56581 4399 ft 266 kts 266°
2026-04-23 13:28 33.93608 -118.58775 5207 ft 267 kts 267°
2026-04-23 13:28 33.93232 -118.60956 5937 ft 274 kts 249°
2026-04-23 13:28 33.92100 -118.62833 6639 ft 282 kts 222°
2026-04-23 13:28 33.90349 -118.63922 7307 ft 291 kts 195°
2026-04-23 13:29 33.88347 -118.64085 8075 ft 294 kts 180°
2026-04-23 13:29 33.86282 -118.63933 8776 ft 299 kts 179°
2026-04-23 13:29 33.84219 -118.63521 9403 ft 308 kts 161°
2026-04-23 13:29 33.82309 -118.62311 10049 ft 315 kts 149°
2026-04-23 13:30 33.80442 -118.60824 10467 ft 330 kts 148°
2026-04-23 13:30 33.78508 -118.59236 10787 ft 348 kts 148°
2026-04-23 13:30 33.76431 -118.57539 11101 ft 366 kts 148°
2026-04-23 13:30 33.74301 -118.55808 11418 ft 382 kts 149°
2026-04-23 13:31 33.72118 -118.53889 11766 ft 398 kts 141°
2026-04-23 13:31 33.70171 -118.51439 12184 ft 413 kts 130°
2026-04-23 13:31 33.68610 -118.48526 12802 ft 420 kts 118°
2026-04-23 13:31 33.67488 -118.45260 13485 ft 424 kts 110°
2026-04-23 13:32 33.66546 -118.41903 14123 ft 430 kts 109°
2026-04-23 13:32 33.65575 -118.38467 14744 ft 435 kts 110°
2026-04-23 13:32 33.64764 -118.34988 15439 ft 438 kts 101°
2026-04-23 13:32 33.64432 -118.31370 16013 ft 443 kts 91°
2026-04-23 13:33 33.64414 -118.27630 16551 ft 449 kts 89°
2026-04-23 13:33 33.64429 -118.23903 17146 ft 454 kts 89°
2026-04-23 13:33 33.64441 -118.20074 17760 ft 458 kts 89°
2026-04-23 13:33 33.64449 -118.16255 18431 ft 461 kts 89°
2026-04-23 13:34 33.64453 -118.12400 19015 ft 465 kts 89°
2026-04-23 13:34 33.64455 -118.08513 19589 ft 469 kts 89°
2026-04-23 13:34 33.64454 -118.04636 20131 ft 473 kts 89°
2026-04-23 13:34 33.64452 -118.00661 20712 ft 476 kts 90°
2026-04-23 13:35 33.64447 -117.96700 21233 ft 481 kts 90°
2026-04-23 13:35 33.64441 -117.92660 21797 ft 484 kts 90°
2026-04-23 13:35 33.64433 -117.88643 22382 ft 486 kts 90°
2026-04-23 13:35 33.64423 -117.84555 22922 ft 489 kts 90°
2026-04-23 13:36 33.64487 -117.80504 23388 ft 493 kts 85°
2026-04-23 13:36 33.65011 -117.76401 23843 ft 497 kts 77°
2026-04-23 13:36 33.65771 -117.72360 24251 ft 503 kts 75°
2026-04-23 13:36 33.66568 -117.68251 24709 ft 507 kts 76°
2026-04-23 13:37 33.67364 -117.64140 25219 ft 510 kts 76°
2026-04-23 13:37 33.68164 -117.59988 25667 ft 514 kts 76°
2026-04-23 13:37 33.68968 -117.55808 26073 ft 519 kts 76°
2026-04-23 13:37 33.69786 -117.51539 26487 ft 523 kts 76°
2026-04-23 13:38 33.70596 -117.47304 26904 ft 527 kts 76°
2026-04-23 13:38 33.71413 -117.43019 27328 ft 531 kts 76°
2026-04-23 13:38 33.72232 -117.38715 27717 ft 535 kts 76°
2026-04-23 13:38 33.73058 -117.34364 28090 ft 539 kts 77°
2026-04-23 13:39 33.73903 -117.29898 28388 ft 544 kts 77°
2026-04-23 13:39 33.74688 -117.25446 28714 ft 548 kts 81°
2026-04-23 13:39 33.75039 -117.20867 29058 ft 552 kts 89°
2026-04-23 13:39 33.75012 -117.16269 29419 ft 554 kts 92°
2026-04-23 13:40 33.74920 -117.11639 29821 ft 556 kts 93°
2026-04-23 13:40 33.74821 -117.07010 30258 ft 556 kts 93°
2026-04-23 13:40 33.74720 -117.02338 30651 ft 558 kts 93°
2026-04-23 13:40 33.74618 -116.97675 31029 ft 559 kts 93°
2026-04-23 13:41 33.74515 -116.92985 31383 ft 561 kts 93°
2026-04-23 13:41 33.74412 -116.88363 31761 ft 562 kts 93°
2026-04-23 13:41 33.74305 -116.83637 32152 ft 563 kts 94°
2026-04-23 13:41 33.74197 -116.78943 32526 ft 564 kts 94°
2026-04-23 13:42 33.74087 -116.74248 32914 ft 564 kts 94°
2026-04-23 13:42 33.73976 -116.69559 33236 ft 567 kts 94°
2026-04-23 13:42 33.73863 -116.64860 33546 ft 568 kts 94°
2026-04-23 13:42 33.73747 -116.60119 33900 ft 571 kts 95°
2026-04-23 13:43 33.73628 -116.55330 34360 ft 571 kts 94°
2026-04-23 13:43 33.73510 -116.50634 34838 ft 570 kts 94°
2026-04-23 13:43 33.73388 -116.45852 35303 ft 569 kts 94°
2026-04-23 13:43 33.73267 -116.41146 35776 ft 568 kts 95°
2026-04-23 13:44 33.73142 -116.36398 36217 ft 567 kts 95°
2026-04-23 13:44 33.73016 -116.31662 36499 ft 568 kts 94°
2026-04-23 13:44 33.72887 -116.26941 36573 ft 573 kts 95°
2026-04-23 13:44 33.72755 -116.22150 36711 ft 576 kts 94°
2026-04-23 13:45 33.72668 -116.18984 36830 ft 577 kts 95°
2026-04-23 13:45 33.72487 -116.12568 37023 ft 579 kts 95°
2026-04-23 13:45 33.72349 -116.07758 37029 ft 577 kts 94°
2026-04-23 13:46 33.71641 -115.98177 37036 ft 574 kts 100°
2026-04-23 13:46 33.70702 -115.88698 37047 ft 573 kts 100°
2026-04-23 13:47 33.69781 -115.79233 37056 ft 573 kts 99°
2026-04-23 13:47 33.68861 -115.69709 37056 ft 573 kts 99°
2026-04-23 13:48 33.67947 -115.60227 37044 ft 577 kts 99°
2026-04-23 13:48 33.67024 -115.50671 37031 ft 574 kts 100°
2026-04-23 13:49 33.66106 -115.41216 37024 ft 575 kts 100°
2026-04-23 13:49 33.65170 -115.31648 36987 ft 578 kts 99°
2026-04-23 13:50 33.64235 -115.22137 36985 ft 574 kts 101°
2026-04-23 13:50 33.63293 -115.12633 36983 ft 577 kts 101°
2026-04-23 13:51 33.62348 -115.03171 36980 ft 575 kts 101°
2026-04-23 13:51 33.61391 -114.93672 36978 ft 577 kts 100°
2026-04-23 13:52 33.60422 -114.84111 36982 ft 577 kts 100°
2026-04-23 13:52 33.59454 -114.74622 36977 ft 578 kts 99°
2026-04-23 13:53 33.58602 -114.65048 36982 ft 578 kts 99°
2026-04-23 13:53 33.57758 -114.55486 36986 ft 577 kts 98°
2026-04-23 13:54 33.56904 -114.45939 36987 ft 582 kts 99°
2026-04-23 13:54 33.56035 -114.36335 36988 ft 578 kts 98°
2026-04-23 13:55 33.55230 -114.27525 36969 ft 576 kts 99°
2026-04-23 13:55 33.54343 -114.17915 36968 ft 581 kts 99°
2026-04-23 13:56 33.53453 -114.08348 36976 ft 577 kts 99°
2026-04-23 13:56 33.52558 -113.98822 36977 ft 582 kts 98°
2026-04-23 13:57 33.51648 -113.89213 36978 ft 578 kts 99°
2026-04-23 13:57 33.50736 -113.79664 36979 ft 579 kts 98°
2026-04-23 13:58 33.49819 -113.70142 36980 ft 580 kts 99°
2026-04-23 13:58 33.48891 -113.60579 36988 ft 581 kts 99°
2026-04-23 13:59 33.47951 -113.50990 36992 ft 582 kts 99°
2026-04-23 13:59 33.47003 -113.41379 36995 ft 582 kts 98°
2026-04-23 14:00 33.46344 -113.33360 36987 ft 584 kts 93°
2026-04-23 14:00 33.46250 -113.21986 36969 ft 584 kts 91°
2026-04-23 14:01 33.46196 -113.12269 36967 ft 587 kts 91°
2026-04-23 14:01 33.46130 -113.02528 36974 ft 583 kts 91°
2026-04-23 14:02 33.46052 -112.92815 36975 ft 587 kts 92°
2026-04-23 14:02 33.45965 -112.83121 36976 ft 586 kts 91°
2026-04-23 14:03 33.45869 -112.73347 36977 ft 585 kts 91°
2026-04-23 14:03 33.45766 -112.63680 36974 ft 585 kts 91°
2026-04-23 14:04 33.45654 -112.53982 36974 ft 587 kts 91°
2026-04-23 14:04 33.45537 -112.44418 36977 ft 585 kts 91°
2026-04-23 14:05 33.45410 -112.34750 36977 ft 588 kts 92°
2026-04-23 14:05 33.45274 -112.24978 36954 ft 586 kts 91°
2026-04-23 14:06 33.45132 -112.15262 36959 ft 588 kts 91°
2026-04-23 14:06 33.44981 -112.05473 36961 ft 586 kts 92°
2026-04-23 14:07 33.44822 -111.95694 36965 ft 587 kts 91°
2026-04-23 14:07 33.44570 -111.81081 36974 ft 587 kts 91°
2026-04-23 14:08 33.44393 -111.71355 36981 ft 587 kts 91°
2026-04-23 14:08 33.44209 -111.61655 36991 ft 586 kts 91°
2026-04-23 14:09 33.44017 -111.51904 36997 ft 588 kts 91°
2026-04-23 14:09 33.43816 -111.42150 37007 ft 586 kts 91°
2026-04-23 14:10 33.43608 -111.32377 37023 ft 588 kts 92°
2026-04-23 14:10 33.43393 -111.22642 37054 ft 587 kts 92°
2026-04-23 14:11 33.43170 -111.12900 37054 ft 588 kts 91°
2026-04-23 14:11 33.42941 -111.03204 37062 ft 585 kts 92°
2026-04-23 14:12 33.42702 -110.93468 37068 ft 589 kts 92°
2026-04-23 14:12 33.42456 -110.83703 37087 ft 586 kts 92°
2026-04-23 14:13 33.42204 -110.74036 37100 ft 588 kts 92°
2026-04-23 14:13 33.41942 -110.64266 37097 ft 588 kts 92°
2026-04-23 14:14 33.41674 -110.54545 37092 ft 586 kts 91°
2026-04-23 14:14 33.41398 -110.44818 37092 ft 589 kts 92°
2026-04-23 14:15 33.41113 -110.35036 37105 ft 588 kts 91°
2026-04-23 14:15 33.40822 -110.25292 37085 ft 586 kts 92°
2026-04-23 14:16 33.40524 -110.15608 37096 ft 589 kts 92°
2026-04-23 14:16 33.40216 -110.05809 37108 ft 587 kts 93°
2026-04-23 14:17 33.39902 -109.96099 37122 ft 588 kts 92°
2026-04-23 14:17 33.39581 -109.86400 37124 ft 588 kts 92°
2026-04-23 14:18 33.39251 -109.76656 37128 ft 589 kts 92°
2026-04-23 14:18 33.38912 -109.66852 37132 ft 587 kts 92°
2026-04-23 14:19 33.38568 -109.57137 37139 ft 588 kts 92°
2026-04-23 14:19 33.38216 -109.47424 37147 ft 588 kts 92°
2026-04-23 14:20 33.37856 -109.37696 37149 ft 586 kts 92°
2026-04-23 14:20 33.37490 -109.27989 37136 ft 589 kts 93°
2026-04-23 14:21 33.37114 -109.18236 37137 ft 585 kts 93°
2026-04-23 14:21 33.36731 -109.08491 37150 ft 589 kts 93°
2026-04-23 14:22 33.36339 -108.98736 37155 ft 586 kts 92°
2026-04-23 14:22 33.35943 -108.89062 37162 ft 588 kts 92°
2026-04-23 14:23 33.35538 -108.79347 37173 ft 585 kts 92°
2026-04-23 14:23 33.35126 -108.69635 37190 ft 587 kts 92°
2026-04-23 14:24 33.34706 -108.59924 37196 ft 585 kts 92°
2026-04-23 14:24 33.34278 -108.50216 37199 ft 587 kts 92°
2026-04-23 14:25 33.33844 -108.40512 37194 ft 584 kts 92°
2026-04-23 14:25 33.33403 -108.30866 37161 ft 585 kts 92°
2026-04-23 14:26 33.32954 -108.21173 37170 ft 585 kts 92°
2026-04-23 14:26 33.32497 -108.11473 37179 ft 583 kts 92°
2026-04-23 14:27 33.32034 -108.01805 37189 ft 585 kts 92°
2026-04-23 14:27 33.31563 -107.92147 37184 ft 583 kts 92°
2026-04-23 14:28 33.31084 -107.82468 37192 ft 584 kts 92°
2026-04-23 14:28 33.30598 -107.72792 37185 ft 582 kts 93°
2026-04-23 14:29 33.30099 -107.63019 37167 ft 584 kts 93°
2026-04-23 14:29 33.29594 -107.53280 37169 ft 584 kts 93°
2026-04-23 14:30 33.29082 -107.43561 37153 ft 583 kts 93°
2026-04-23 14:30 33.28549 -107.33929 37089 ft 586 kts 96°
2026-04-23 14:31 33.26778 -107.24548 37048 ft 580 kts 112°
2026-04-23 14:31 33.23965 -107.15507 37054 ft 580 kts 115°
2026-04-23 14:32 33.21096 -107.06575 37083 ft 580 kts 115°
2026-04-23 14:32 33.18180 -106.97619 37093 ft 579 kts 115°
2026-04-23 14:33 33.15244 -106.88679 37105 ft 582 kts 115°
2026-04-23 14:33 33.12294 -106.79750 37119 ft 580 kts 115°
2026-04-23 14:34 33.09335 -106.70838 37121 ft 582 kts 114°
2026-04-23 14:34 33.06357 -106.61900 37108 ft 580 kts 114°
2026-04-23 14:35 33.03371 -106.52978 37091 ft 585 kts 114°
2026-04-23 14:35 33.00364 -106.44013 37079 ft 581 kts 114°
2026-04-23 14:36 32.97368 -106.35112 37079 ft 584 kts 114°
2026-04-23 14:36 32.94323 -106.26091 37051 ft 581 kts 115°
2026-04-23 14:37 32.91310 -106.17190 37058 ft 582 kts 115°
2026-04-23 14:37 32.88290 -106.08294 37055 ft 582 kts 114°
2026-04-23 14:38 32.85247 -105.99358 37061 ft 584 kts 114°
2026-04-23 14:38 32.82206 -105.90447 37098 ft 583 kts 115°
2026-04-23 14:39 32.79160 -105.81549 37131 ft 583 kts 114°
2026-04-23 14:39 32.76128 -105.72716 37193 ft 581 kts 114°
2026-04-23 14:40 32.73067 -105.63822 37184 ft 582 kts 115°
2026-04-23 14:40 32.70000 -105.54937 37152 ft 582 kts 114°
2026-04-23 14:41 32.66944 -105.46106 37137 ft 579 kts 114°
2026-04-23 14:41 32.63887 -105.37300 37120 ft 580 kts 114°
2026-04-23 14:42 32.60819 -105.28482 37099 ft 580 kts 115°
2026-04-23 14:42 32.57741 -105.19658 37084 ft 578 kts 114°
2026-04-23 14:43 32.54651 -105.10825 37090 ft 579 kts 114°
2026-04-23 14:43 32.51537 -105.01949 37092 ft 579 kts 114°
2026-04-23 14:44 32.48463 -104.93211 37083 ft 578 kts 114°
2026-04-23 14:44 32.45367 -104.84432 37071 ft 578 kts 113°
2026-04-23 14:45 32.42280 -104.75700 37064 ft 578 kts 114°
2026-04-23 14:45 32.39172 -104.66933 37058 ft 576 kts 114°
2026-04-23 14:46 32.36076 -104.58225 37053 ft 578 kts 114°
2026-04-23 14:46 32.32956 -104.49468 37035 ft 578 kts 114°
2026-04-23 14:47 32.29841 -104.40752 37017 ft 578 kts 114°
2026-04-23 14:47 32.26714 -104.32021 36982 ft 576 kts 114°
2026-04-23 14:48 32.23609 -104.23379 36976 ft 577 kts 115°
2026-04-23 14:48 32.20463 -104.14641 36972 ft 575 kts 115°
2026-04-23 14:49 32.17332 -104.05971 36971 ft 578 kts 115°
2026-04-23 14:49 32.14172 -103.97240 36969 ft 576 kts 114°
2026-04-23 14:50 32.11046 -103.88628 36973 ft 576 kts 115°
2026-04-23 14:50 32.07899 -103.79979 36981 ft 576 kts 115°
2026-04-23 14:51 32.04743 -103.71326 36984 ft 574 kts 114°
2026-04-23 14:51 32.01577 -103.62669 36993 ft 574 kts 115°
2026-04-23 14:52 31.98421 -103.54062 36993 ft 572 kts 114°
2026-04-23 14:52 31.95273 -103.45497 36992 ft 573 kts 114°
2026-04-23 14:53 31.92104 -103.36900 36983 ft 572 kts 114°
2026-04-23 14:53 31.88946 -103.28349 36951 ft 569 kts 114°
2026-04-23 14:54 31.85817 -103.19781 36956 ft 571 kts 114°
2026-04-23 14:54 31.82792 -103.11239 36950 ft 567 kts 113°
2026-04-23 14:55 31.79757 -103.02696 36958 ft 569 kts 113°
2026-04-23 14:55 31.76693 -102.94099 36958 ft 567 kts 113°
2026-04-23 14:56 31.73649 -102.85590 36965 ft 569 kts 112°
2026-04-23 14:56 31.70644 -102.77210 36967 ft 565 kts 112°
2026-04-23 14:57 31.67581 -102.68695 36965 ft 566 kts 112°
2026-04-23 14:57 31.64533 -102.60242 36974 ft 564 kts 112°
2026-04-23 14:58 31.61483 -102.51806 36976 ft 564 kts 112°
2026-04-23 14:58 31.58431 -102.43384 36982 ft 563 kts 112°
2026-04-23 14:59 31.55350 -102.34905 36983 ft 563 kts 113°
2026-04-23 14:59 31.52278 -102.26473 36962 ft 562 kts 113°
2026-04-23 15:00 31.49213 -102.18078 36962 ft 561 kts 113°
2026-04-23 15:00 31.46141 -102.09686 36964 ft 564 kts 113°
2026-04-23 15:01 31.43052 -102.01266 36961 ft 563 kts 113°
2026-04-23 15:01 31.39982 -101.92921 36962 ft 561 kts 112°
2026-04-23 15:02 31.36890 -101.84535 36965 ft 562 kts 113°
2026-04-23 15:02 31.33791 -101.76149 36966 ft 561 kts 113°
2026-04-23 15:03 31.30694 -101.67790 36980 ft 563 kts 113°
2026-04-23 15:03 31.27601 -101.59463 36986 ft 560 kts 113°
2026-04-23 15:04 31.24501 -101.51137 36987 ft 561 kts 113°
2026-04-23 15:04 31.21373 -101.42754 36992 ft 562 kts 112°
2026-04-23 15:05 31.18395 -101.34376 36983 ft 558 kts 106°
2026-04-23 15:05 31.16914 -101.25616 36979 ft 555 kts 93°
2026-04-23 15:06 31.16056 -101.16626 36979 ft 555 kts 92°
2026-04-23 15:06 31.15203 -101.07783 36977 ft 552 kts 93°
2026-04-23 15:07 31.14334 -100.98910 36974 ft 553 kts 93°
2026-04-23 15:07 31.13447 -100.89984 36969 ft 551 kts 93°
2026-04-23 15:08 31.12558 -100.81119 36971 ft 552 kts 93°
2026-04-23 15:09 31.11211 -100.67834 36967 ft 554 kts 93°
2026-04-23 15:09 31.10306 -100.59000 36972 ft 551 kts 93°
2026-04-23 15:10 31.09545 -100.51621 36976 ft 550 kts 93°
2026-04-23 15:10 31.08478 -100.41334 36982 ft 551 kts 93°
2026-04-23 15:11 31.07552 -100.32481 36975 ft 549 kts 93°
2026-04-23 15:11 31.06625 -100.23676 36969 ft 548 kts 94°
2026-04-23 15:12 31.05694 -100.14899 36968 ft 549 kts 93°
2026-04-23 15:12 31.04750 -100.06044 36956 ft 547 kts 94°
2026-04-23 15:13 31.03809 -99.97287 36955 ft 550 kts 94°
2026-04-23 15:13 31.02857 -99.88478 36956 ft 547 kts 94°
2026-04-23 15:14 31.01906 -99.79737 36960 ft 548 kts 94°
2026-04-23 15:14 31.00940 -99.70920 36965 ft 546 kts 94°
2026-04-23 15:15 30.99975 -99.62157 36966 ft 548 kts 94°
2026-04-23 15:15 30.99002 -99.53385 36970 ft 546 kts 94°
2026-04-23 15:16 30.98030 -99.44676 36971 ft 544 kts 94°
2026-04-23 15:16 30.97047 -99.35919 36970 ft 546 kts 94°
2026-04-23 15:17 30.96056 -99.27144 36954 ft 546 kts 95°
2026-04-23 15:17 30.95060 -99.18389 36959 ft 543 kts 94°
2026-04-23 15:18 30.94066 -99.09697 36963 ft 543 kts 95°
2026-04-23 15:18 30.93064 -99.00992 36962 ft 543 kts 95°
2026-04-23 15:19 30.92061 -98.92329 36959 ft 543 kts 94°
2026-04-23 15:19 30.91054 -98.83685 36964 ft 541 kts 94°
2026-04-23 15:20 30.90202 -98.76400 36966 ft 543 kts 95°
2026-04-23 15:20 30.89017 -98.66346 36962 ft 539 kts 94°
2026-04-23 15:21 30.87991 -98.57685 36961 ft 541 kts 94°
2026-04-23 15:21 30.86964 -98.49076 36962 ft 538 kts 95°
2026-04-23 15:22 30.85927 -98.40419 36961 ft 540 kts 94°
2026-04-23 15:22 30.85010 -98.32821 36953 ft 537 kts 95°
2026-04-23 15:23 30.84032 -98.24742 36955 ft 537 kts 95°
2026-04-23 15:23 30.83012 -98.16354 36959 ft 537 kts 94°
2026-04-23 15:24 30.81991 -98.08015 36957 ft 537 kts 95°
2026-04-23 15:24 30.81573 -98.04623 36952 ft 537 kts 94°
2026-04-23 15:25 30.80570 -97.96493 36948 ft 536 kts 95°
2026-04-23 15:25 30.79499 -97.87861 36955 ft 537 kts 95°
2026-04-23 15:26 30.78429 -97.79292 36965 ft 533 kts 95°
2026-04-23 15:26 30.77394 -97.71036 36967 ft 535 kts 95°
2026-04-23 15:27 30.76319 -97.62521 36972 ft 533 kts 95°
2026-04-23 15:27 30.75232 -97.53948 36967 ft 531 kts 95°
2026-04-23 15:28 30.74153 -97.45486 36967 ft 534 kts 94°
2026-04-23 15:28 30.73063 -97.36981 36966 ft 533 kts 94°
2026-04-23 15:29 30.71965 -97.28455 36949 ft 534 kts 95°
2026-04-23 15:29 30.70868 -97.19995 36948 ft 532 kts 95°
2026-04-23 15:30 30.69761 -97.11498 36952 ft 531 kts 95°
2026-04-23 15:30 30.68652 -97.03027 36954 ft 529 kts 95°
2026-04-23 15:31 30.67541 -96.94579 36956 ft 530 kts 95°
2026-04-23 15:31 30.66423 -96.86128 36957 ft 529 kts 95°
2026-04-23 15:32 30.65310 -96.77751 36960 ft 529 kts 95°
2026-04-23 15:32 30.64549 -96.72057 36964 ft 529 kts 95°
2026-04-23 15:33 30.63418 -96.63617 36968 ft 527 kts 95°
2026-04-23 15:33 30.62288 -96.55234 36975 ft 526 kts 95°
2026-04-23 15:34 30.61159 -96.46896 36981 ft 527 kts 95°
2026-04-23 15:34 30.59564 -96.38720 36984 ft 529 kts 104°
2026-04-23 15:35 30.57448 -96.30586 36967 ft 530 kts 105°
2026-04-23 15:35 30.55298 -96.22411 36976 ft 528 kts 105°
2026-04-23 15:36 30.53159 -96.14321 36972 ft 529 kts 104°
2026-04-23 15:36 30.51006 -96.06211 36972 ft 528 kts 105°
2026-04-23 15:37 30.48843 -95.98093 36965 ft 527 kts 104°
2026-04-23 15:37 30.47035 -95.91328 36971 ft 527 kts 104°
2026-04-23 15:38 30.44509 -95.81905 36970 ft 525 kts 104°
2026-04-23 15:38 30.42328 -95.73794 36974 ft 527 kts 104°
2026-04-23 15:39 30.40240 -95.66050 36978 ft 524 kts 104°
2026-04-23 15:39 30.38073 -95.58035 36994 ft 526 kts 104°
2026-04-23 15:40 30.35890 -95.49982 36995 ft 524 kts 104°
2026-04-23 15:40 30.33717 -95.41987 36993 ft 524 kts 104°
2026-04-23 15:41 30.31549 -95.34036 36990 ft 523 kts 105°
2026-04-23 15:41 30.29360 -95.26025 36977 ft 523 kts 105°
2026-04-23 15:42 30.27170 -95.18034 36982 ft 522 kts 105°
2026-04-23 15:42 30.24975 -95.10043 36974 ft 520 kts 104°
2026-04-23 15:43 30.22781 -95.02079 36979 ft 522 kts 104°
2026-04-23 15:43 30.20587 -94.94135 36968 ft 520 kts 104°
2026-04-23 15:44 30.18381 -94.86173 36981 ft 519 kts 104°
2026-04-23 15:44 30.16183 -94.78254 36980 ft 520 kts 104°
2026-04-23 15:45 30.13987 -94.70365 36980 ft 518 kts 104°
2026-04-23 15:45 30.11782 -94.62464 36979 ft 520 kts 104°
2026-04-23 15:46 30.09559 -94.54524 36988 ft 517 kts 104°
2026-04-23 15:46 30.07356 -94.46672 36992 ft 518 kts 104°
2026-04-23 15:47 30.05101 -94.38656 36998 ft 516 kts 104°
2026-04-23 15:47 30.02885 -94.30795 36999 ft 516 kts 105°
2026-04-23 15:48 30.00673 -94.22973 37005 ft 517 kts 105°
2026-04-23 15:48 29.98442 -94.15100 37001 ft 515 kts 105°
2026-04-23 15:49 29.96224 -94.07295 37004 ft 514 kts 105°
2026-04-23 15:49 29.94013 -93.99438 37004 ft 513 kts 103°
2026-04-23 15:50 29.92166 -93.91543 37011 ft 512 kts 101°
2026-04-23 15:50 29.90337 -93.83683 37011 ft 511 kts 101°
2026-04-23 15:51 29.88471 -93.75745 37001 ft 512 kts 101°
2026-04-23 15:51 29.86613 -93.67898 36998 ft 512 kts 102°
2026-04-23 15:52 29.84737 -93.60015 37000 ft 510 kts 102°
2026-04-23 15:52 29.82864 -93.52172 36997 ft 511 kts 102°
2026-04-23 15:53 29.80987 -93.44345 36997 ft 509 kts 102°
2026-04-23 15:53 29.79102 -93.36508 37004 ft 509 kts 102°
2026-04-23 15:54 29.77203 -93.28636 37000 ft 509 kts 102°
2026-04-23 15:54 29.75324 -93.20866 36994 ft 508 kts 102°
2026-04-23 15:55 29.73423 -93.13032 37000 ft 509 kts 102°
2026-04-23 15:55 29.71523 -93.05226 37000 ft 509 kts 102°
2026-04-23 15:56 29.69618 -92.97416 37005 ft 508 kts 102°
2026-04-23 15:56 29.67723 -92.89671 37010 ft 507 kts 102°
2026-04-23 15:57 29.65808 -92.81867 37015 ft 505 kts 102°
2026-04-23 15:57 29.63898 -92.74104 37012 ft 505 kts 102°
2026-04-23 15:58 29.61997 -92.66399 37018 ft 505 kts 102°
2026-04-23 15:58 29.60075 -92.58627 37018 ft 505 kts 102°
2026-04-23 15:59 29.58169 -92.50945 37021 ft 504 kts 102°
2026-04-23 15:59 29.56245 -92.43207 37022 ft 504 kts 102°
2026-04-23 16:00 29.54326 -92.35517 37015 ft 502 kts 102°
2026-04-23 16:00 29.52391 -92.27775 37014 ft 504 kts 103°
2026-04-23 16:01 29.50467 -92.20104 37017 ft 502 kts 103°
2026-04-23 16:01 29.48543 -92.12452 37019 ft 503 kts 103°
2026-04-23 16:02 29.46601 -92.04747 37026 ft 502 kts 103°
2026-04-23 16:02 29.44666 -91.97092 37027 ft 502 kts 103°
2026-04-23 16:03 29.42726 -91.89436 37026 ft 500 kts 103°
2026-04-23 16:03 29.40782 -91.81786 37033 ft 500 kts 103°
2026-04-23 16:04 29.38836 -91.74145 37030 ft 501 kts 103°
2026-04-23 16:04 29.36891 -91.66533 37033 ft 501 kts 103°
2026-04-23 16:05 29.35263 -91.60172 37035 ft 500 kts 103°
2026-04-23 16:05 29.32970 -91.51241 37034 ft 500 kts 103°
2026-04-23 16:06 29.31009 -91.43623 37044 ft 499 kts 103°
2026-04-23 16:06 29.29044 -91.36011 37043 ft 500 kts 103°
2026-04-23 16:07 29.27080 -91.28419 37041 ft 499 kts 103°
2026-04-23 16:07 29.25102 -91.20793 37039 ft 499 kts 104°
2026-04-23 16:08 29.23134 -91.13229 37044 ft 499 kts 103°
2026-04-23 16:08 29.21156 -91.05644 37045 ft 497 kts 104°
2026-04-23 16:09 29.19180 -90.98083 37051 ft 499 kts 104°
2026-04-23 16:09 29.17191 -90.90492 37045 ft 499 kts 104°
2026-04-23 16:10 29.15198 -90.82912 37051 ft 497 kts 104°
2026-04-23 16:10 29.13214 -90.75376 37056 ft 498 kts 104°
2026-04-23 16:11 29.11227 -90.67854 37053 ft 496 kts 104°
2026-04-23 16:11 29.09231 -90.60313 37058 ft 497 kts 104°
2026-04-23 16:12 29.07229 -90.52771 37060 ft 499 kts 104°
2026-04-23 16:12 29.05220 -90.45221 37060 ft 496 kts 104°
2026-04-23 16:13 29.03216 -90.37703 37062 ft 498 kts 104°
2026-04-23 16:13 29.00184 -90.26372 37053 ft 496 kts 105°
2026-04-23 16:14 28.98184 -90.18922 37058 ft 495 kts 105°
2026-04-23 16:14 28.96164 -90.11414 37064 ft 495 kts 105°
2026-04-23 16:15 28.94140 -90.03910 37064 ft 494 kts 105°
2026-04-23 16:15 28.92122 -89.96445 37074 ft 494 kts 105°
2026-04-23 16:16 28.90094 -89.88961 37069 ft 496 kts 105°
2026-04-23 16:16 28.88062 -89.81481 37062 ft 494 kts 105°
2026-04-23 16:17 28.86035 -89.74037 37062 ft 495 kts 105°
2026-04-23 16:17 28.83986 -89.66529 37066 ft 493 kts 105°
2026-04-23 16:18 28.81955 -89.59110 37066 ft 494 kts 105°
2026-04-23 16:18 28.79909 -89.51650 37064 ft 492 kts 105°
2026-04-23 16:19 28.77880 -89.44271 37063 ft 491 kts 105°
2026-04-23 16:19 28.75841 -89.36874 37063 ft 492 kts 105°
2026-04-23 16:20 28.73787 -89.29436 37059 ft 492 kts 106°
2026-04-23 16:20 28.71739 -89.22041 37057 ft 492 kts 106°
2026-04-23 16:21 28.69682 -89.14629 37052 ft 492 kts 106°
2026-04-23 16:21 28.67622 -89.07224 37052 ft 491 kts 106°
2026-04-23 16:22 28.65563 -88.99841 37054 ft 489 kts 106°
2026-04-23 16:22 28.63502 -88.92467 37051 ft 491 kts 106°
2026-04-23 16:23 28.61441 -88.85112 37057 ft 488 kts 106°
2026-04-23 16:23 28.59371 -88.77741 37053 ft 492 kts 106°
2026-04-23 16:24 28.57302 -88.70391 37052 ft 491 kts 106°
2026-04-23 16:24 28.55218 -88.63004 37054 ft 491 kts 106°
2026-04-23 16:25 28.53128 -88.55613 37055 ft 490 kts 107°
2026-04-23 16:25 28.51045 -88.48263 37054 ft 491 kts 107°
2026-04-23 16:26 28.48963 -88.40935 37048 ft 493 kts 107°
2026-04-23 16:26 28.46850 -88.33512 37049 ft 491 kts 107°
2026-04-23 16:27 28.44755 -88.26173 37051 ft 490 kts 107°
2026-04-23 16:27 28.42651 -88.18816 37048 ft 491 kts 107°
2026-04-23 16:28 28.40538 -88.11448 37048 ft 491 kts 108°
2026-04-23 16:28 28.38425 -88.04092 37045 ft 493 kts 108°
2026-04-23 16:29 28.36435 -87.96652 37044 ft 496 kts 106°
2026-04-23 16:29 28.34502 -87.89157 37051 ft 493 kts 106°
2026-04-23 16:30 28.32572 -87.81726 37049 ft 495 kts 106°
2026-04-23 16:30 28.30624 -87.74259 37052 ft 493 kts 107°
2026-04-23 16:31 28.28679 -87.66830 37054 ft 495 kts 107°
2026-04-23 16:31 28.26713 -87.59347 37051 ft 496 kts 107°
2026-04-23 16:32 28.24742 -87.51863 37061 ft 494 kts 107°
2026-04-23 16:32 28.22776 -87.44419 37064 ft 495 kts 107°
2026-04-23 16:33 28.20802 -87.36964 37067 ft 497 kts 107°
2026-04-23 16:33 28.18815 -87.29479 37064 ft 496 kts 108°
2026-04-23 16:34 28.16826 -87.22002 37065 ft 497 kts 108°
2026-04-23 16:34 28.14823 -87.14491 37055 ft 499 kts 108°
2026-04-23 16:35 28.12818 -87.06990 37053 ft 495 kts 109°
2026-04-23 16:35 28.10824 -86.99553 37058 ft 497 kts 109°
2026-04-23 16:36 28.08809 -86.92052 37050 ft 498 kts 109°
2026-04-23 16:36 28.06800 -86.84592 37053 ft 497 kts 109°
2026-04-23 16:37 28.04784 -86.77122 37060 ft 498 kts 109°
2026-04-23 16:37 28.02766 -86.69665 37067 ft 499 kts 109°
2026-04-23 16:38 28.00731 -86.62161 37059 ft 498 kts 109°
2026-04-23 16:38 27.98695 -86.54675 37065 ft 501 kts 109°
2026-04-23 16:39 27.96655 -86.47187 37063 ft 499 kts 109°
2026-04-23 16:39 27.94611 -86.39706 37069 ft 501 kts 110°
2026-04-23 16:40 27.92546 -86.32163 37053 ft 501 kts 110°
2026-04-23 16:40 27.90490 -86.24669 37068 ft 500 kts 110°
2026-04-23 16:41 27.88445 -86.17238 37056 ft 500 kts 110°
2026-04-23 16:41 27.86375 -86.09731 37068 ft 500 kts 111°
2026-04-23 16:42 27.84307 -86.02245 37081 ft 499 kts 111°
2026-04-23 16:42 27.82249 -85.94817 37077 ft 500 kts 111°
2026-04-23 16:43 27.80162 -85.87302 37075 ft 501 kts 111°
2026-04-23 16:43 27.78081 -85.79827 37073 ft 502 kts 111°
2026-04-23 16:44 27.75987 -85.72320 37076 ft 501 kts 111°
2026-04-23 16:44 27.73897 -85.64843 37076 ft 503 kts 111°
2026-04-23 16:45 27.71798 -85.57354 37077 ft 502 kts 111°
2026-04-23 16:45 27.69700 -85.49886 37084 ft 503 kts 111°
2026-04-23 16:46 27.67590 -85.42392 37084 ft 502 kts 111°
2026-04-23 16:46 27.65477 -85.34902 37077 ft 502 kts 111°
2026-04-23 16:47 27.63343 -85.27358 37073 ft 503 kts 111°
2026-04-23 16:47 27.61234 -85.19917 37079 ft 503 kts 111°
2026-04-23 16:48 27.59090 -85.12375 37076 ft 505 kts 111°
2026-04-23 16:48 27.56965 -85.04910 37071 ft 503 kts 112°
2026-04-23 16:49 27.54816 -84.97382 37075 ft 505 kts 112°
2026-04-23 16:49 27.52674 -84.89895 37079 ft 505 kts 111°
2026-04-23 16:50 27.50517 -84.82373 37071 ft 506 kts 111°
2026-04-23 16:50 27.48139 -84.74961 37080 ft 505 kts 116°
2026-04-23 16:51 27.45499 -84.67647 37086 ft 504 kts 116°
2026-04-23 16:51 27.42855 -84.60351 37083 ft 507 kts 116°
2026-04-23 16:52 27.40197 -84.53024 37082 ft 506 kts 116°
2026-04-23 16:52 27.37555 -84.45757 37086 ft 507 kts 115°
2026-04-23 16:53 27.34880 -84.38412 37086 ft 505 kts 116°
2026-04-23 16:53 27.32217 -84.31115 37060 ft 508 kts 116°
2026-04-23 16:54 27.29539 -84.23789 37074 ft 507 kts 116°